Location: Betz
(49.1556°N, 2.9558°E)
Time: 00:52:42
(UTC+00:00)

Cosmos 1455 Rocket - Pass Details

Date: 18 September 2019
Orbit: 605 x 630 km, 82.5° (Epoch: 16 October)

Event Time Altitude Azimuth Distance (km) Brightness Sun altitude
Exits shadow 20:16:20 23° 201° (SSW) 1,339 4.6 -22.6°
Maximum altitude 20:19:03 71° 281° (W) 667 3.3 -23.0°
Drops below altitude 10° 20:23:32 10° 6° (N) 2,019 6.0 -23.6°
Sets 20:25:48 0° 9° (N) 2,933 6.9 -23.9°
